Regional Weather Roundup
Issued by NWS

Home | Current Version | Previous Version | Graphics & Text | Print | Product List | Glossary On
Versions: 1 2 3 4 5 6 7 8 9 10 11 12 13 14 15 16 17 18 19 20 21 22 23 24 25 26 27 28 29 30 31 32 33 34 35 36 37 38 39 40 41 42 43 44 45 46 47 48 49 50
000
ASUS45 KTFX 271004
RWRMT
MONTANA HOURLY WEATHER ROUNDUP
NATIONAL WEATHER SERVICE GREAT FALLS MT
304 AM MST TUE JAN 27 2015

NOTE: "FAIR" INDICATES FEW OR NO CLOUDS BELOW 12000 FEET WITH NO
SIGNIFICANT WEATHER AND/OR OBSTRUCTIONS TO VISIBILITY.

* THESE STATIONS ARE NOT UNDER NWS QUALITY CONTROL. THEY DO NOT
   REPORT WEATHER SUCH AS PRECIPITATION OR FOG.

MTZ001>007-043-271100-
WEST OF THE DIVIDE
CITY           SKY/WX    TMP DP  RH WIND       PRES   REMARKS
KALISPELL      FOG       19  18  96 CALM      30.01S VSB 2 1/2
MISSOULA       FOG       23  23 100 CALM      30.08R
BUTTE          PTCLDY    27  25  92 CALM      30.09S
MULLAN PASS    PTCLDY    45  21  38 SW8       30.05S
* ANACONDA     PTCLDY    36  25  64 S5         N/A   WCI  32
* ESSEX        N/A       26  24  92 N1         N/A
* LINCOLN      N/A       27  23  85 NE2        N/A
* LOOKOUT PASS N/A       38  30  73 SE2        N/A
* POLSON       N/A       39  30  70 SE1        N/A
* RONAN APT    MOCLDY    30  28  92 N/A        N/A
* SEELEY LAKE  N/A       22  20  92 NE1        N/A
* THOMP F APT  PTCLDY    38  25  60 NE3        N/A
$$

MTZ008-052>055-271100-
SOUTHWEST MONTANA
CITY           SKY/WX    TMP DP  RH WIND       PRES   REMARKS
BOZEMAN        PTCLDY    27  25  92 S3        30.07R
DILLON         CLEAR     36  27  70 S12       30.10S WCI  28
* W YELLOWSTON CLEAR     18  16  92 N/A        N/A
* THREE FORKS  PTCLDY    27  27 100 N/A        N/A
* BOULDER HILL N/A       39  23  53 S8         N/A   WCI  33
* MONIDA PASS  N/A       28  23  81 E9         N/A   WCI  19
* RAYNOLDS PAS N/A       27  15  61 E1G7       N/A
* WHITEHALL    N/A       33  25  72 NW5G10     N/A   WCI  28
* WISE RIVER   N/A       25  22  88 W5         N/A   WCI  19
$$

MTZ009>010-012-014-046-048-049-054-271100-
EAST SLOPES AND CENTRAL MONTANA
CITY           SKY/WX    TMP DP  RH WIND       PRES   REMARKS
GREAT FALLS    CLOUDY    52  27  38 S13       29.91S
HELENA         PTCLDY    34  28  79 CALM      30.03F
MALMSTROM AFB  MOCLDY    54  28  37 SW23      29.90S
* DEARBORN     N/A       47  29  50 S6G11      N/A
* EAST GLACIER N/A       49  20  32 W15        N/A
* MONARCH      N/A       51  19  28 SW13G19    N/A
* PENDROY      N/A       56  21  26 S6G11      N/A
* ROGERS PASS  N/A       46  23  40 SE7G14     N/A
* SWEET GRASS  N/A       51  24  35 SW19       N/A
$$

MTZ011-013-016-021-035-040-045-047-050-051-271100-
NORTH CENTRAL MONTANA
CITY           SKY/WX    TMP DP  RH WIND       PRES   REMARKS
HAVRE          MOCLDY    39  30  70 SW12      29.84R WCI  32
LEWISTOWN      PTCLDY    46  28  50 SW14      29.92F
* N BAR RANCH  CLEAR     48  18  30 W8        29.94S
* CHESTER      N/A       32  27  82 NE2        N/A
* DENTON       N/A       49  26  41 SW1        N/A
* GEYSER       N/A       53  21  29 W9         N/A
* JUDITH GAP   N/A       55  27  34 W25G30     N/A
* LOMA         N/A       48  31  52 SW12G17    N/A
$$

MTZ017>020-022>027-061-062-271100-
NORTHEAST MONTANA
CITY           SKY/WX    TMP DP  RH WIND       PRES   REMARKS
GLASGOW        CLOUDY    34  30  85 SE7       29.83S WCI  28
GLENDIVE       PTCLDY    30  30 100 S3        29.87S
JORDAN         PTCLDY    30  27  89 CALM      29.85S
SIDNEY         MOCLDY    30  28  92 CALM      29.87S
WOLF POINT     CLOUDY    28  27  96 W3        29.84S
* BEAVER HILL  N/A       42  31  65 SW11G16    N/A
* CIRCLE       N/A       40  33  76 SW4        N/A
* LINDSAY DVD  N/A       49  31  50 W8         N/A
* NAVAJO       N/A       35  31  85 E2         N/A
* SACO         N/A       31  30  96 W1         N/A
$$

MTZ028>042-056>058-271100-
SOUTHCENTRAL AND SOUTHEAST MONTANA
CITY           SKY/WX    TMP DP  RH WIND       PRES   REMARKS
BAKER          PTCLDY    36  28  73 N5        29.90S WCI  32
BILLINGS       PTCLDY    52  27  38 SW25G32   29.95F
LIVINGSTON     PTCLDY    54  25  33 SW29G37   30.01R
MILES CITY     PTCLDY    36  28  73 S6        29.90R WCI  31
* LAUREL APT   PTCLDY    45  27  49 SW9        N/A
* ROUNDUP APT  PTCLDY    45  27  49 S14G21     N/A
* ALZADA       N/A       39  29  67 W4         N/A
* HYSHAM       N/A       48  24  39 W6G11      N/A
* LAME DEER    N/A       54  24  31 W13        N/A
* REED POINT   N/A       28  27  96 E1         N/A
* ROSCOE HILL  N/A       55  11  17 NE5        N/A
$$

REGIONAL REPORTS...DAKOTAS
CITY           SKY/WX    TMP DP  RH WIND       PRES   REMARKS
WILLISTON      MOCLDY    27  25  92 CALM      29.84F
DICKINSON      PTCLDY    30  27  89 S6        29.84F WCI  24
CROSBY         CLEAR     32  32 100 S10       29.83F WCI  24
WATFORD CITY   CLEAR     28  28 100 CALM      29.84S
BISMARCK       CLEAR     30  28  92 E8        29.93F WCI  22
GRAND FORKS    FOG       27  25  92 S7        30.04F VSB 1/2  WCI  19
FARGO          FOG       28  25  89 E5        30.06S VSB 1 1/4 WCI  22
BUFFALO SD     MOCLDY    43  30  60 W12       29.85S
RAPID CITY     PTCLDY    45  27  49 W9        29.95F
$$

REGIONAL REPORTS...WYOMING/IDAHO/WASHINGTON
CITY           SKY/WX    TMP DP  RH WIND       PRES   REMARKS
GILLETTE       CLEAR     46  28  50 SW14      30.00S
SHERIDAN       PTCLDY    37  25  62 CALM      29.97F
CODY           PTCLDY    41  25  53 CALM      30.08S
YELLOWSTONE LA PTCLDY    10   7  88 CALM      30.29S
SALMON         CLOUDY   N/A N/A N/A CALM      30.20S VSB 1/2
MULLAN PASS    PTCLDY    45  21  38 SW8       30.05S
SAND POINT     FOG      N/A N/A N/A CALM      30.03S VSB M1/4
SPOKANE        FOG       34  34 100 E6        29.99S WCI  29

$$




USA.gov is the U.S. government's official web portal to all federal, state and local government web resources and services.